Weyburn, Saskatchewan

6:09 AM CST on September 26, 2017 (GMT -0600)
Weyburn

Weather History for CWWF - July, 2013

Change the Weather History Date:

Wednesday, July 10, 2013

  Actual Average Record
Temperature  
Mean Temperature 66 °F -  
Max Temperature 81 °F - - ()
Min Temperature 52 °F - - ()
Cooling Degree Days 2    
Growing Degree Days 16 (Base 50)    
Moisture  
Dew Point 54 °F    
Average Humidity 64    
Maximum Humidity 94    
Minimum Humidity 26    
Precipitation  
Precipitation 0.00 in - - ()
Sea Level Pressure  
Sea Level Pressure 30.02 in    
Wind  
Wind Speed 5 mph ()    
Max Wind Speed 10 mph    
Max Gust Speed -    
T = Trace of Precipitation, MM = Missing Value Source: Averaged Metar Reports

Daily Weather History Graph

Daily Weather History Graph

Search for Another Location

Airport or City:

Trip Planner

Search our weather history database for the weather conditions in past years. The results will help you decide how hot, cold, wet, or windy it might be!

Date:

Astronomy

Jul. 10, 2013 Rise Set
Actual Time 4:59 AM CST 9:01 PM CST
Civil Twilight 4:16 AM CST 9:43 PM CST
Nautical Twilight 3:16 AM CST 10:43 PM CST
Astronomical Twilight 1:17 AM CST 12:34 AM CST
Moon 7:41 AM CST (7/10) 9:50 PM CST (7/10)
Length of Visible Light 17h 26m
Length of Day
16h 02m
Waxing Crescent, 5% of the Moon is Illuminated
Jul 10
Waxing Crescent
Jul 15
First Quarter
Jul 22
Full
Jul 29
Last Quarter
Aug 6
New

Hourly Weather History & Observations

Time (CST) Temp. Dew Point Humidity Pressure Visibility Wind Dir Wind Speed Gust Speed Precip Events Conditions
12:00 AM 56 °F 53 °F 87% 30.11 in - South 4.6 mph - -  
12:00 AM 55.6 °F 53.2 °F 92% 30.11 in - South 4.6 mph - N/A   Unknown
1:00 AM 54.5 °F 52.5 °F 93% 30.11 in - South 3.5 mph - N/A   Unknown
2:00 AM 54.0 °F 52.2 °F 94% 30.10 in - South 4.6 mph - N/A   Unknown
3:00 AM 54.1 °F 52.3 °F 94% 30.09 in - South 4.6 mph - N/A   Unknown
4:00 AM 54.9 °F 52.5 °F 92% 30.08 in - South 2.3 mph - N/A   Unknown
5:00 AM 53.6 °F 51.4 °F 92% 30.08 in - South 4.6 mph - N/A   Unknown
6:00 AM 56 °F 53 °F 84% 30.07 in - SSW 2.3 mph - -  
6:00 AM 55.8 °F 52.5 °F 89% 30.07 in - SSW 2.3 mph - N/A   Unknown
7:00 AM 60.4 °F 54.5 °F 81% 30.06 in - SW 4.6 mph - N/A   Unknown
8:00 AM 64.2 °F 56.8 °F 77% 30.06 in - WSW 3.5 mph - N/A   Unknown
9:00 AM 69.3 °F 58.8 °F 69% 30.06 in - WSW 6.9 mph - N/A   Unknown
10:00 AM 73.4 °F 57.6 °F 58% 30.04 in - WSW 6.9 mph - N/A   Unknown
11:00 AM 75.9 °F 56.5 °F 51% 30.03 in - WSW 9.2 mph - N/A   Unknown
12:00 PM 78 °F 53 °F 32% 30.03 in - WSW 6.9 mph - -  
12:00 PM 78.3 °F 53.4 °F 42% 30.03 in - WSW 6.9 mph - N/A   Unknown
1:00 PM 77.7 °F 50.4 °F 38% 30.01 in - WSW 6.9 mph - N/A   Unknown
2:00 PM 79.3 °F 49.8 °F 36% 30.00 in - WSW 5.8 mph - N/A   Unknown
3:00 PM 80.8 °F 50.5 °F 35% 29.99 in - SW 4.6 mph - N/A   Unknown
4:00 PM 80.4 °F 50.5 °F 35% 29.98 in - SW 4.6 mph - N/A   Unknown
5:00 PM 81.1 °F 52.5 °F 37% 29.96 in - SW 5.8 mph - N/A   Unknown
6:00 PM 80 °F 51 °F 26% 29.94 in - South 6.9 mph - -  
6:00 PM 80.2 °F 51.4 °F 37% 29.94 in - South 6.9 mph - N/A   Unknown
7:00 PM 79.0 °F 55.6 °F 44% 29.93 in - South 8.1 mph - N/A   Unknown
8:00 PM 73.9 °F 58.6 °F 59% 29.92 in - SSE 8.1 mph - N/A   Unknown
9:00 PM 68.2 °F 59.2 °F 73% 29.91 in - SE 8.1 mph - N/A   Unknown
10:00 PM 67.5 °F 58.5 °F 73% 29.91 in - SSE 10.4 mph - N/A   Unknown
11:00 PM 63.3 °F 58.6 °F 85% 29.90 in - SSE 9.2 mph - N/A   Unknown